Location: Goll?ig?dem
(16.6773°N, 80.7332°E)
Time: 06:13:15
(UTC+00:00)

COSMOS 2428 - Pass Details

Date: 21 April 2021
Orbit: 844 x 859 km, 70.9° (Epoch: 06 May)

Event Time Altitude Azimuth Distance (km) Brightness Sun altitude
Rises 15:03:37 0° 344° (NNW) 3,425 6.4 -30.2°
Reaches altitude 10° 15:06:04 10° 345° (NNW) 2,488 5.6 -30.7°
Enters shadow 15:10:07 48° 351° (N) 1,105 3.4 -31.6°
